Regional Weather Roundup
Issued by NWS

Home | Current Version | Previous Version | Graphics & Text | Print | Product List | Glossary On
Versions: 1 2 3 4 5 6 7 8 9 10 11 12 13 14 15 16 17 18 19 20 21 22 23 24 25 26 27 28 29 30 31 32 33 34 35 36 37 38 39 40 41 42 43 44 45 46 47 48 49 50
821
ASUS43 KOAX 252010
RWRNE

WEATHER ROUNDUP FOR NEBRASKA
NATIONAL WEATHER SERVICE OMAHA NE
300 PM CDT SAT MAR 25 2017

NOTES: SATELLITE DATA IS BEING USED TO AUGMENT CLOUD COVER ABOVE
       12000 FEET.
       "FAIR" INDICATES FEW OR NO CLOUDS BELOW 12,000 FEET WITH NO
       SIGNIFICANT WEATHER AND/OR OBSTRUCTIONS TO VISIBILITY.

  * THESE STATIONS DO NOT REPORT WEATHER SUCH AS RAIN...SNOW OR FOG.

NEZ001>004-019>022-054>056-252100-
NEBRASKA PANHANDLE

CITY           SKY/WX    TMP DP  RH WIND       PRES   REMARKS
SCOTTSBLUFF    CLOUDY    66  30  26 SE5       29.88F
ALLIANCE       SUNNY     64  29  26 S13G20    29.89F
CHADRON        MOSUNNY   67  29  24 VRB5      29.85F
KIMBALL        CLOUDY    62  33  33 SW9       29.93F
SIDNEY         CLOUDY    60  30  32 S12G18    29.94F
$$

NEZ057>060-069>072-079>082-252100-
SOUTHWEST NEBRASKA

CITY           SKY/WX    TMP DP  RH WIND       PRES   REMARKS
NORTH PLATTE   SUNNY     60  25  26 VRB3      29.94F
IMPERIAL       SUNNY     58  25  28 CALM      29.95F
LEXINGTON      PTSUNNY   50  42  72 CALM      29.96F
MCCOOK         SUNNY     60  31  33 CALM      29.93F
OGALLALA       SUNNY     60  24  24 S5        29.95F
$$

NEZ005>010-023>029-035>040-094-252100-
NORTH CENTRAL NEBRASKA

CITY           SKY/WX    TMP DP  RH WIND       PRES   REMARKS
VALENTINE      SUNNY     61  15  16 SE8G17    29.94F
AINSWORTH      SUNNY     55  37  52 E7        29.96F
BROKEN BOW     SUNNY     50  42  74 NE7       29.96F
O`NEILL        CLOUDY    39  38  94 NE6       30.00F WCI  35
ORD            CLOUDY    43  38  82 NE8       29.97F
THEDFORD       SUNNY     61  27  27 S6        29.95F
$$

NEZ041-046>049-061>064-073>077-083>087-252100-
SOUTH CENTRAL NEBRASKA

CITY           SKY/WX    TMP DP  RH WIND       PRES   REMARKS
GRAND ISLAND   CLOUDY    39  39 100 N10       29.98F WCI  32
AURORA         CLOUDY    37  37 100 N9        29.97F FOG     WCI  31
HASTINGS       CLOUDY    40  37  89 N12       29.98F WCI  33
HEBRON         CLOUDY    40  38  93 N14       29.96F FOG     WCI  33
HOLDREGE       CLOUDY    43  39  86 NE6       29.97F
KEARNEY *      CLOUDY    43  36  75 N9        29.98F
YORK           CLOUDY    39  39 100 N12G17    29.96F FOG     WCI  32
$$

NEZ011>018-030>034-042>045-252100-
NORTHEAST NEBRASKA

CITY           SKY/WX    TMP DP  RH WIND       PRES   REMARKS
NORFOLK        CLOUDY    38  36  92 N13       29.97F FOG     WCI  30
ALBION         CLOUDY    41  38  87 N10       29.98F
BLAIR          LGT RAIN  41  40  94 N13       29.93F
FREMONT        CLOUDY    40  39  97 N12       29.96F WCI  33
TEKAMAH        LGT RAIN  40  38  93 N15       29.96F FOG     WCI  32
WAYNE          CLOUDY    39  39  99 N14       29.97F FOG     WCI  31
$$

NEZ050>053-065>068-078-088>093-252100-
SOUTHEAST NEBRASKA

CITY           SKY/WX    TMP DP  RH WIND       PRES   REMARKS
LINCOLN        CLOUDY    42  39  89 N15       29.95F
OMAHA EPPLEY   CLOUDY    43  38  82 N12       29.94F
BEATRICE       DRIZZLE   43  42  95 N13       29.93F
FALLS CITY     CLOUDY    45  41  86 N10       29.89
NEBRASKA CITY  DRIZZLE   42  42 100 N15       29.91F
PLATTSMOUTH    CLOUDY    43  39  86 N12G17    29.92F
$$

NEZ044-045-051>053-067-252100-
OMAHA AREA

CITY           SKY/WX    TMP DP  RH WIND       PRES   REMARKS
OMAHA EPPLEY   CLOUDY    43  38  82 N12       29.94F
BLAIR          LGT RAIN  41  40  94 N13       29.93F
FREMONT        CLOUDY    40  39  97 N12       29.96F WCI  33
MILLARD        LGT RAIN  44  42  93 N3        29.94F
OFFUTT AFB     CLOUDY    43  39  87 N7        29.93F
PLATTSMOUTH    CLOUDY    43  39  86 N12G17    29.92F
WAHOO          CLOUDY    40  38  93 NE15      29.95F FOG     WCI  32
$$




USA.gov is the U.S. government's official web portal to all federal, state and local government web resources and services.